Location: Albuquerque Trailhead
(34.7934°N, 106.3736°W)
Time: 00:45:05
(UTC+00:00)

Cosmos 1607 - Visible Passes

Search period start: 24 October 2021 00:00
Search period end: 03 November 2021 00:00
Orbit: 915 x 987 km, 65.0° (Epoch: 23 October)

Date Brightness Start Highest point End Pass type
(mag) Time Alt. Az. Time Alt. Az. Time Alt. Az.
24 Oct 4.7 00:59:35 10° NW 01:05:39 56° WSW 01:11:36 10° S visible
25 Oct 6.0 01:18:15 10° NW 01:23:33 30° WSW 01:28:46 10° SSW visible
26 Oct 6.8 01:37:46 10° WNW 01:41:19 16° WSW 01:44:49 10° SW visible
29 Oct 6.9 00:44:21 10° WNW 00:48:38 20° WSW 00:52:51 10° SSW visible
29 Oct 6.9 12:19:34 10° SSE 12:23:50 19° ESE 12:28:07 10° ENE visible
30 Oct 5.9 12:35:56 10° S 12:41:39 34° ESE 12:47:21 10° NE visible
31 Oct 4.7 12:53:15 10° SSW 12:59:35 62° ESE 13:05:55 10° NE visible
01 Nov 6.9 11:27:42 10° SE 11:31:10 15° ESE 11:34:38 10° ENE visible
02 Nov 6.0 11:43:34 10° SSE 11:48:55 28° ESE 11:54:17 10° NE visible
